TimeCDT,TemperatureF,Dew PointF,Humidity,Sea Level PressureIn,VisibilityMPH,Wind Direction,Wind SpeedMPH,Gust SpeedMPH,PrecipitationIn,Events,Conditions,WindDirDegrees,DateUTC
12:15 AM,35.6,32.0,87,29.59,10.0,WNW,17.3,23.0,N/A,,Mostly Cloudy,290,2012-10-09 05:15:00
12:35 AM,35.6,32.0,87,29.59,10.0,WNW,18.4,-,N/A,,Overcast,290,2012-10-09 05:35:00
12:55 AM,35.6,32.0,87,29.59,10.0,WNW,17.3,-,N/A,,Overcast,300,2012-10-09 05:55:00
1:15 AM,35.6,32.0,87,29.59,10.0,WNW,16.1,-,N/A,,Overcast,290,2012-10-09 06:15:00
1:35 AM,35.6,32.0,87,29.59,10.0,WNW,19.6,23.0,N/A,,Overcast,290,2012-10-09 06:35:00
1:55 AM,33.8,32.0,93,29.59,9.0,WNW,16.1,-,N/A,,Overcast,290,2012-10-09 06:55:00
2:15 AM,33.8,32.0,93,29.60,9.0,WNW,17.3,-,N/A,Rain,Light Rain,290,2012-10-09 07:15:00
3:15 AM,33.8,33.8,100,29.60,10.0,WNW,12.7,-,N/A,,Overcast,300,2012-10-09 08:15:00
3:35 AM,33.8,33.8,100,29.60,9.0,WNW,12.7,-,N/A,,Overcast,290,2012-10-09 08:35:00
3:55 AM,33.8,33.8,100,29.60,10.0,WNW,13.8,-,N/A,,Overcast,300,2012-10-09 08:55:00
4:15 AM,33.8,33.8,100,29.61,6.0,NW,15.0,19.6,N/A,Rain,Light Rain,310,2012-10-09 09:15:00
4:35 AM,32.0,32.0,100,29.63,2.5,NNW,21.9,29.9,0.02,,Overcast,340,2012-10-09 09:35:00
4:55 AM,32.0,32.0,100,29.64,1.5,North,16.1,21.9,0.08,Snow,Light Snow,360,2012-10-09 09:55:00
5:15 AM,32.0,32.0,100,29.66,2.0,North,18.4,-,0.03,Snow,Light Snow,360,2012-10-09 10:15:00
5:35 AM,32.0,32.0,100,29.67,3.0,North,17.3,-,0.05,Snow,Light Snow,10,2012-10-09 10:35:00
5:55 AM,32.0,32.0,100,29.69,4.0,North,19.6,24.2,0.05,,Overcast,360,2012-10-09 10:55:00
6:15 AM,32.0,32.0,100,29.70,6.0,North,19.6,-,N/A,Rain,Light Rain,360,2012-10-09 11:15:00
6:35 AM,32.0,32.0,100,29.71,3.0,North,20.7,25.3,0.01,Snow,Light Snow,360,2012-10-09 11:35:00
6:55 AM,32.0,32.0,100,29.73,4.0,North,19.6,27.6,0.02,Rain,Light Rain,360,2012-10-09 11:55:00
7:15 AM,32.0,32.0,100,29.74,3.0,North,18.4,24.2,N/A,Snow,Light Snow,350,2012-10-09 12:15:00
7:35 AM,32.0,32.0,100,29.76,10.0,North,19.6,24.2,N/A,,Overcast,360,2012-10-09 12:35:00
7:55 AM,32.0,32.0,100,29.77,10.0,North,17.3,24.2,N/A,,Overcast,350,2012-10-09 12:55:00
8:15 AM,32.0,32.0,100,29.78,10.0,NNW,18.4,26.5,N/A,,Overcast,340,2012-10-09 13:15:00
8:35 AM,32.0,32.0,100,29.79,10.0,NNW,17.3,23.0,N/A,,Overcast,340,2012-10-09 13:35:00
8:55 AM,32.0,30.2,93,29.80,10.0,NNW,19.6,26.5,N/A,,Overcast,340,2012-10-09 13:55:00
9:15 AM,32.0,30.2,93,29.81,10.0,NNW,23.0,-,N/A,,Scattered Clouds,330,2012-10-09 14:15:00
9:35 AM,32.0,30.2,93,29.82,10.0,NNW,21.9,29.9,N/A,,Partly Cloudy,330,2012-10-09 14:35:00
9:55 AM,32.0,32.0,100,29.83,7.0,NNW,21.9,29.9,N/A,,Mostly Cloudy,330,2012-10-09 14:55:00
10:15 AM,32.0,32.0,100,29.84,10.0,NNW,26.5,32.2,N/A,,Mostly Cloudy,340,2012-10-09 15:15:00
10:35 AM,33.8,32.0,93,29.85,10.0,NNW,26.5,31.1,N/A,,Mostly Cloudy,330,2012-10-09 15:35:00
10:55 AM,33.8,32.0,93,29.85,6.0,NNW,20.7,28.8,N/A,,Mostly Cloudy,330,2012-10-09 15:55:00
11:15 AM,35.6,30.2,81,29.86,10.0,NNW,24.2,29.9,N/A,,Mostly Cloudy,330,2012-10-09 16:15:00
11:35 AM,35.6,30.2,81,29.87,10.0,NNW,20.7,28.8,N/A,,Mostly Cloudy,340,2012-10-09 16:35:00
11:55 AM,35.6,28.4,75,29.88,10.0,NNW,20.7,28.8,N/A,Rain,Light Rain,340,2012-10-09 16:55:00
12:15 PM,35.6,30.2,81,29.88,10.0,NNW,23.0,26.5,N/A,,Mostly Cloudy,340,2012-10-09 17:15:00
12:35 PM,35.6,26.6,70,29.88,10.0,North,19.6,31.1,N/A,,Mostly Cloudy,350,2012-10-09 17:35:00
12:55 PM,37.4,28.4,70,29.88,10.0,NNW,19.6,26.5,N/A,,Mostly Cloudy,330,2012-10-09 17:55:00
1:15 PM,37.4,26.6,65,29.89,10.0,NNW,19.6,24.2,N/A,,Mostly Cloudy,340,2012-10-09 18:15:00
1:35 PM,37.4,28.4,70,29.89,10.0,NNW,18.4,24.2,N/A,,Overcast,330,2012-10-09 18:35:00
1:55 PM,37.4,24.8,60,29.89,10.0,NNW,17.3,21.9,N/A,,Overcast,340,2012-10-09 18:55:00
2:15 PM,35.6,26.6,70,29.89,10.0,NNW,12.7,-,N/A,Rain,Light Rain,340,2012-10-09 19:15:00
2:35 PM,37.4,24.8,60,29.89,10.0,NNW,18.4,24.2,N/A,,Overcast,330,2012-10-09 19:35:00
2:55 PM,37.4,26.6,65,29.89,10.0,NW,18.4,21.9,N/A,,Mostly Cloudy,320,2012-10-09 19:55:00
3:15 PM,37.4,28.4,70,29.90,10.0,NW,19.6,27.6,N/A,,Overcast,310,2012-10-09 20:15:00
3:35 PM,37.4,30.2,75,29.90,10.0,NW,13.8,-,N/A,,Mostly Cloudy,310,2012-10-09 20:35:00
3:55 PM,41.0,30.2,65,29.91,10.0,North,13.8,-,N/A,,Mostly Cloudy,360,2012-10-09 20:55:00
4:15 PM,35.6,28.4,75,29.91,10.0,NW,16.1,19.6,0.01,,Overcast,310,2012-10-09 21:15:00
4:35 PM,37.4,30.2,75,29.91,10.0,NW,17.3,-,0.01,,Overcast,320,2012-10-09 21:35:00
4:55 PM,35.6,30.2,81,29.92,10.0,WNW,16.1,-,0.01,,Overcast,300,2012-10-09 21:55:00
5:15 PM,35.6,28.4,75,29.93,10.0,NW,13.8,-,N/A,,Overcast,310,2012-10-09 22:15:00
5:35 PM,35.6,28.4,75,29.93,10.0,WNW,15.0,-,N/A,,Overcast,300,2012-10-09 22:35:00
5:55 PM,35.6,32.0,87,29.94,10.0,NW,13.8,19.6,N/A,,Overcast,310,2012-10-09 22:55:00
6:15 PM,32.0,30.2,93,29.94,7.0,NNW,8.1,-,0.03,Snow,Light Snow,330,2012-10-09 23:15:00
6:35 PM,32.0,32.0,100,29.95,10.0,WNW,11.5,-,0.03,,Mostly Cloudy,300,2012-10-09 23:35:00
6:55 PM,32.0,32.0,100,29.95,10.0,NW,8.1,-,0.03,,Overcast,310,2012-10-09 23:55:00
7:15 PM,32.0,32.0,100,29.96,10.0,NW,5.8,-,N/A,,Overcast,320,2012-10-10 00:15:00
7:35 PM,32.0,32.0,100,29.96,10.0,NW,5.8,-,N/A,,Overcast,320,2012-10-10 00:35:00
7:55 PM,32.0,28.4,87,29.96,10.0,WNW,5.8,-,N/A,,Overcast,300,2012-10-10 00:55:00
8:15 PM,32.0,30.2,93,29.96,10.0,WNW,4.6,-,N/A,,Overcast,290,2012-10-10 01:15:00
8:35 PM,32.0,32.0,100,29.96,10.0,West,5.8,-,N/A,,Overcast,280,2012-10-10 01:35:00
8:55 PM,32.0,30.2,93,29.96,10.0,West,5.8,-,N/A,,Overcast,260,2012-10-10 01:55:00
9:15 PM,30.2,30.2,100,29.96,10.0,West,6.9,-,N/A,,Partly Cloudy,270,2012-10-10 02:15:00
9:35 PM,28.4,28.4,100,29.97,10.0,West,4.6,-,N/A,,Clear,280,2012-10-10 02:35:00
9:55 PM,28.4,28.4,100,29.96,10.0,WNW,4.6,-,N/A,,Clear,290,2012-10-10 02:55:00
10:15 PM,28.4,28.4,100,29.96,10.0,WNW,5.8,-,N/A,,Clear,300,2012-10-10 03:15:00
10:35 PM,28.4,28.4,100,29.96,10.0,NW,4.6,-,N/A,,Scattered Clouds,320,2012-10-10 03:35:00
10:55 PM,30.2,28.4,93,29.96,10.0,NW,4.6,-,N/A,,Overcast,320,2012-10-10 03:55:00
11:15 PM,30.2,26.6,86,29.97,10.0,WNW,3.5,-,N/A,,Overcast,290,2012-10-10 04:15:00
11:35 PM,28.4,26.6,93,29.96,10.0,Calm,Calm,-,N/A,,Overcast,0,2012-10-10 04:35:00
11:55 PM,28.4,26.6,93,29.96,10.0,West,3.5,-,N/A,,Overcast,260,2012-10-10 04:55:00